This is the latest recevied weather packets stored in our database for station/object VE6HFD-WX. If no packets are shown the sender has not sent any weather packets the latest 10 day(s).
| Time | Temp. | Humidity | Pressure | Rain* | Wind** | Luminosity | Snow |
|---|---|---|---|---|---|---|---|
| 1778048617 | -0.56° C | 63% | 1019.8 hPa | 0 mm | - | - | - |
| 1778048317 | -0.56° C | 63% | 1019.8 hPa | 0 mm | - | - | - |
| 1778047987 | -1.11° C | 64% | 1019.7 hPa | 0 mm | - | - | - |
| 1778047687 | -1.11° C | 62% | 1019.7 hPa | 0 mm | - | - | - |
| 1778047357 | -1.11° C | 64% | 1019.7 hPa | 0 mm | - | - | - |
| 1778047027 | -1.11° C | 63% | 1019.7 hPa | 0 mm | - | - | - |
| 1778046697 | -1.11° C | 63% | 1019.7 hPa | 0 mm | - | - | - |
| 1778046368 | -1.11° C | 61% | 1019.7 hPa | 0 mm | - | - | - |
| 1778046037 | 0° C | 57% | 1019.7 hPa | 0 mm | - | - | - |
| 1778045737 | 1.11° C | 55% | 1019.8 hPa | 0 mm | - | - | - |
| 1778045437 | 1.67° C | 53% | 1019.9 hPa | 0 mm | - | - | - |
| 1778045107 | 1.67° C | 54% | 1020 hPa | 0 mm | - | - | - |
| 1778044777 | 1.11° C | 56% | 1020 hPa | 0 mm | - | - | - |
| 1778044447 | 0.56° C | 57% | 1020.1 hPa | 0 mm | - | - | - |
| 1778044117 | 0.56° C | 56% | 1020.2 hPa | 0 mm | - | - | - |
| 1778043787 | 0.56° C | 57% | 1020.2 hPa | 0 mm | - | - | - |
| 1778043487 | 0.56° C | 59% | 1020.3 hPa | 0 mm | - | - | - |
| 1778043157 | 1.11° C | 60% | 1020.3 hPa | 0 mm | - | - | - |
| 1778042857 | 1.11° C | 59% | 1020.3 hPa | 0 mm | - | - | - |
| 1778042558 | 1.11° C | 60% | 1020.3 hPa | 0 mm | - | - | - |
| 1778042257 | 1.67° C | 57% | 1020.4 hPa | 0 mm | - | - | - |
| 1778041960 | 1.67° C | 55% | 1020.4 hPa | 0 mm | - | - | - |
| 1778041627 | 1.67° C | 55% | 1020.4 hPa | 0 mm | - | - | - |
| 1778041297 | 2.22° C | 54% | 1020.4 hPa | 0 mm | - | - | - |
| 1778040968 | 2.78° C | 51% | 1020.5 hPa | 0 mm | - | - | - |
* Rain latest hour (hover to see other rain measurements)
** Current wind speed in m/s (hover to see current wind gust speed)